Regional Weather Roundup
Issued by NWS

Home | Current Version | Previous Version | Text Only | Print | Product List | Glossary Off
Versions: 1 2 3 4 5 6 7 8 9 10 11 12 13 14 15 16 17 18 19 20 21 22 23 24 25 26 27 28

000
ASUS45 KBOU 300610
RWRCO

WEATHER ROUNDUP FOR COLORADO
NATIONAL WEATHER SERVICE DENVER/BOULDER CO
1200 AM MDT FRI SEP 30 2016

NOTE: "FAIR" INDICATES FEW OR NO CLOUDS BELOW 12000 FEET WITH NO
SIGNIFICANT WEATHER AND/OR OBSTRUCTIONS TO VISIBILITY.

COZ001>005-013-030-031-300700-
...NORTHWEST COLORADO...

CITY           SKY/WX    TMP DP  RH WIND       PRES   REMARKS
CRAIG          MOCLDY    54  50  86 CALM      30.36F
HAYDEN         FAIR      54  46  76 E5        30.38F
MEEKER         FAIR      54  52  93 NE5       30.38F
MOUNT WERNER   NOT AVBL
STEAMBOAT SPGS MOCLDY    52  46  80 CALM      30.39F
WALDEN           N/A     43  34  70 E6        30.44F
$$

COZ006>008-011-300700-
...WEST CENTRAL VALLEYS...

CITY           SKY/WX    TMP DP  RH WIND       PRES   REMARKS
GRAND JUNCTION CLOUDY    60  53  77 SE8       30.32F
MONTROSE       CLOUDY    56  52  86 CALM      30.40F
EAGLE          FAIR      52  43  71 E7        30.41S
RIFLE          LGT RAIN  58  56  93 SE5       30.37S
DELTA          CLOUDY    60  56  87 CALM      30.37S
NUCLA          LGT RAIN  54  54 100 CALM      30.44S
$$

COZ017>023-064>068-300700-
...SOUTHWEST COLORADO...

CITY           SKY/WX    TMP DP  RH WIND       PRES   REMARKS
DURANGO        CLOUDY    53  50  89 CALM      30.44S
CORTEZ         CLOUDY    50  49  96 CALM      30.41R
PAGOSA SPRINGS CLOUDY    52  48  84 CALM      30.49S
TELLURIDE      CLOUDY    48  45  88 CALM      30.54S
WOLF CREEK PAS CLOUDY    36  36 100 MISG      30.69F
$$

COZ009-010-012-014-032>034-037-058>063-300700-
...CENTRAL COLORADO...

CITY           SKY/WX    TMP DP  RH WIND       PRES   REMARKS
ASPEN          CLOUDY    51  43  74 CALM      30.45F
BUENA VISTA    CLOUDY    53  32  45 CALM      30.43F
COPPER MTN     MOCLDY    45  30  57 S8        30.67F
BERTHOUD PASS  FAIR      36  23  60 N17G23    30.68F
COTTONWOOD PAS FAIR      54  34  47 W9        30.54F
GUNNISON       FAIR      51  43  74 CALM      30.44F
KREMMLING      FAIR      46  34  61 CALM      30.42F
LEADVILLE      FAIR      39  27  62 N6        30.53F
MONARCH PASS   FAIR      39  34  81 W15       30.76F
SALIDA         FAIR      58  38  46 CALM      30.47S
SUNLIGHT       DRIZZLE   45  43  93 SW6       30.62F
WILKERSON PASS FAIR      45  27  49 SW12G18   30.64F
$$

COZ069>075-300700-
...SAN LUIS VALLEY/SANGRE DE CRISTO MOUNTAINS...

CITY           SKY/WX    TMP DP  RH WIND       PRES   REMARKS
ALAMOSA        FAIR      48  38  68 SW9       30.43S
LA VETA PASS   FAIR      46  32  57 MISG      30.56S
SAGUACHE       FAIR      54  34  47 N7        30.43F
$$

COZ035-036-038>040-300700-
...NORTHERN COLORADO FRONT RANGE...

CITY           SKY/WX    TMP DP  RH WIND       PRES   REMARKS
DENVER INTL AP FAIR      61  38  42 VRB6      30.24S
DMNS CITY PARK   N/A     59  42  54 S3        30.23S
AURORA         PTCLDY    62  39  43 S14       30.23F
FRONT RANGE AP NOT AVBL
ERIE MUNI ARPT FAIR      53  38  58 CALM      30.22F
BOULDER MUN AP FAIR      61  37  41 SW3       30.22F
CENTENNIAL     FAIR      61  38  42 S8        30.25F
BROOMFIELD     FAIR      64  36  34 N9        30.25F
FORT COLLINS   FAIR      61  39  44 N8        30.22S
LONGMONT       FAIR      54  41  60 NW5       30.23F
$$

COZ041-046-047-076>085-087-088-300700-
...PIKES PEAK/PALMER DIVIDE AND SOUTHERN FOOTHILLS...

CITY           SKY/WX    TMP DP  RH WIND       PRES   REMARKS
COLO. SPRINGS  MOCLDY    53  38  56 N9        30.31F
A. F. ACADEMY  FAIR      49  36  60 N8        30.32F
SCHRIEVER AFB  NOT AVBL
ELLICOTT       NOT AVBL
FALCON         FAIR      52  39  60 N3        30.36S
FORT CARSON    FAIR      54  38  55 NW7       30.27F
LIMON          FAIR      50  40  68 SE8       30.29F
MONUMENT HILL  FAIR      50  36  57 S9        30.35F
TRINIDAD       FAIR      62  30  29 W7        30.28F
$$

COZ042>045-048>051-090-091-300700-
...NORTHEAST COLORADO...

CITY           SKY/WX    TMP DP  RH WIND       PRES   REMARKS
GREELEY ARPT   FAIR      57  37  47 E3        30.21S
AKRON          FAIR      52  40  63 SE13      30.25F
BURLINGTON     FAIR      53  40  61 S15       30.28F
WRAY           NOT AVBL
STERLING       FAIR      59  43  55 S5        30.22F
HOLYOKE        FAIR      54  41  62 SE8       30.28S
FORT MORGAN    FAIR      53  40  61 E7        30.23F
$$

COZ086-089-092>099-300700-
...SOUTHEAST COLORADO...

CITY           SKY/WX    TMP DP  RH WIND       PRES   REMARKS
PUEBLO         FAIR      58  33  39 N9        30.20S
LA JUNTA       FAIR      65  41  41 SE8       30.20F
LAMAR          FAIR      58  42  55 E7        30.23F
SPRINGFIELD      N/A     52  44  74 S9        30.29F
$$




USA.gov is the U.S. government's official web portal to all federal, state and local government web resources and services.